Time,TemperatureF,DewpointF,PressureIn,WindDirection,WindDirectionDegrees,WindSpeedMPH,WindSpeedGustMPH,Humidity,HourlyPrecipIn,Conditions,Clouds,dailyrainin,SoftwareType,DateUTC
2013-05-05 00:04:00,56.3,49.5,29.58,SE,136,0.0,0.0,78,0.00,,,0.00,Wunderground v.1.15,2013-05-05 07:04:00,
2013-05-05 00:10:00,56.4,49.3,29.59,SE,135,0.0,0.0,77,0.00,,,0.00,Wunderground v.1.15,2013-05-05 07:10:00,
2013-05-05 00:16:00,56.3,48.8,29.59,SE,135,0.0,0.0,76,0.00,,,0.00,Wunderground v.1.15,2013-05-05 07:16:00,
2013-05-05 00:22:00,56.2,48.7,29.59,SE,135,0.0,0.0,76,0.00,,,0.00,Wunderground v.1.15,2013-05-05 07:22:00,
2013-05-05 00:27:00,56.1,48.3,29.59,SE,135,0.0,0.0,75,0.00,,,0.00,Wunderground v.1.15,2013-05-05 07:27:00,
2013-05-05 00:34:00,55.9,48.1,29.59,SE,135,0.0,0.0,75,0.00,,,0.00,Wunderground v.1.15,2013-05-05 07:34:00,
2013-05-05 00:39:00,55.7,47.9,29.59,SE,135,0.0,0.0,75,0.00,,,0.00,Wunderground v.1.15,2013-05-05 07:39:00,
2013-05-05 00:46:00,55.5,47.7,29.59,SE,135,0.0,0.0,75,0.00,,,0.00,Wunderground v.1.15,2013-05-05 07:46:00,
2013-05-05 00:52:00,55.3,47.5,29.59,SE,135,0.0,0.0,75,0.00,,,0.00,Wunderground v.1.15,2013-05-05 07:52:00,
2013-05-05 00:58:00,55.0,47.6,29.59,SE,136,1.0,2.0,76,0.00,,,0.00,Wunderground v.1.15,2013-05-05 07:58:00,
2013-05-05 01:04:00,54.8,47.4,29.59,SE,136,0.0,0.0,76,0.00,,,0.00,Wunderground v.1.15,2013-05-05 08:04:00,
2013-05-05 01:10:00,54.6,47.2,29.59,SE,136,0.0,0.0,76,0.00,,,0.00,Wunderground v.1.15,2013-05-05 08:10:00,
2013-05-05 01:16:00,54.3,46.9,29.59,SE,136,0.0,0.0,76,0.00,,,0.00,Wunderground v.1.15,2013-05-05 08:16:00,
2013-05-05 01:22:00,54.1,46.7,29.59,SE,136,0.0,0.0,76,0.00,,,0.00,Wunderground v.1.15,2013-05-05 08:22:00,
2013-05-05 01:28:00,53.9,46.9,29.59,SE,136,0.0,0.0,77,0.00,,,0.00,Wunderground v.1.15,2013-05-05 08:28:00,
2013-05-05 01:34:00,53.7,46.7,29.59,SE,136,0.0,0.0,77,0.00,,,0.00,Wunderground v.1.15,2013-05-05 08:34:00,
2013-05-05 01:40:00,53.7,46.7,29.59,SE,136,0.0,0.0,77,0.00,,,0.00,Wunderground v.1.15,2013-05-05 08:40:00,
2013-05-05 01:46:00,53.9,46.9,29.60,SE,136,0.0,0.0,77,0.00,,,0.00,Wunderground v.1.15,2013-05-05 08:46:00,
2013-05-05 01:52:00,53.9,46.9,29.60,SE,136,0.0,0.0,77,0.00,,,0.00,Wunderground v.1.15,2013-05-05 08:52:00,
2013-05-05 01:57:00,54.0,47.0,29.60,SE,136,0.0,0.0,77,0.00,,,0.00,Wunderground v.1.15,2013-05-05 08:57:00,
2013-05-05 02:04:00,54.1,47.0,29.60,SE,136,0.0,0.0,77,0.00,,,0.00,Wunderground v.1.15,2013-05-05 09:04:00,
2013-05-05 02:10:00,54.2,47.1,29.60,SE,136,0.0,1.0,77,0.00,,,0.00,Wunderground v.1.15,2013-05-05 09:10:00,
2013-05-05 02:16:00,54.3,47.2,29.60,SE,136,0.0,1.0,77,0.00,,,0.00,Wunderground v.1.15,2013-05-05 09:16:00,
2013-05-05 02:21:00,54.4,47.0,29.60,SE,136,0.0,1.0,76,0.00,,,0.00,Wunderground v.1.15,2013-05-05 09:21:00,
2013-05-05 02:28:00,54.4,47.0,29.60,SE,136,0.0,1.0,76,0.00,,,0.00,Wunderground v.1.15,2013-05-05 09:28:00,
2013-05-05 02:34:00,54.5,47.1,29.60,SE,136,0.0,0.0,76,0.00,,,0.00,Wunderground v.1.15,2013-05-05 09:34:00,
2013-05-05 02:40:00,54.6,47.2,29.60,SE,136,0.0,0.0,76,0.00,,,0.00,Wunderground v.1.15,2013-05-05 09:40:00,
2013-05-05 02:46:00,54.6,47.2,29.60,SE,136,0.0,0.0,76,0.00,,,0.00,Wunderground v.1.15,2013-05-05 09:46:00,
2013-05-05 02:52:00,54.6,47.2,29.60,SE,136,0.0,0.0,76,0.00,,,0.00,Wunderground v.1.15,2013-05-05 09:52:00,
2013-05-05 02:58:00,54.7,46.9,29.59,SSW,199,0.0,1.0,75,0.00,,,0.00,Wunderground v.1.15,2013-05-05 09:58:00,
2013-05-05 03:04:00,54.8,47.0,29.60,SSW,205,0.0,0.0,75,0.00,,,0.00,Wunderground v.1.15,2013-05-05 10:04:00,
2013-05-05 03:10:00,54.9,47.1,29.60,SSW,205,0.0,1.0,75,0.00,,,0.00,Wunderground v.1.15,2013-05-05 10:10:00,
2013-05-05 03:16:00,54.9,47.1,29.60,SW,224,0.0,1.0,75,0.00,,,0.00,Wunderground v.1.15,2013-05-05 10:16:00,
2013-05-05 03:22:00,55.0,47.2,29.60,SW,227,0.0,2.0,75,0.00,,,0.00,Wunderground v.1.15,2013-05-05 10:22:00,
2013-05-05 03:27:00,55.0,47.2,29.60,West,275,0.0,2.0,75,0.00,,,0.00,Wunderground v.1.15,2013-05-05 10:27:00,
2013-05-05 03:33:00,55.0,47.2,29.60,West,275,0.0,1.0,75,0.00,,,0.00,Wunderground v.1.15,2013-05-05 10:33:00,
2013-05-05 03:40:00,55.0,47.2,29.61,West,275,0.0,0.0,75,0.00,,,0.00,Wunderground v.1.15,2013-05-05 10:40:00,
2013-05-05 03:46:00,55.1,47.0,29.61,SW,225,0.0,0.0,74,0.00,,,0.00,Wunderground v.1.15,2013-05-05 10:46:00,
2013-05-05 03:52:00,55.0,46.9,29.61,SW,225,0.0,0.0,74,0.00,,,0.00,Wunderground v.1.15,2013-05-05 10:52:00,
2013-05-05 03:58:00,55.1,46.6,29.61,SW,225,0.0,0.0,73,0.00,,,0.00,Wunderground v.1.15,2013-05-05 10:58:00,
2013-05-05 04:04:00,55.2,46.7,29.61,SW,225,0.0,0.0,73,0.00,,,0.00,Wunderground v.1.15,2013-05-05 11:04:00,
2013-05-05 04:10:00,55.3,46.8,29.61,SW,227,0.0,0.0,73,0.00,,,0.00,Wunderground v.1.15,2013-05-05 11:10:00,
2013-05-05 04:16:00,55.3,46.8,29.61,SW,227,0.0,0.0,73,0.00,,,0.00,Wunderground v.1.15,2013-05-05 11:16:00,
2013-05-05 04:22:00,55.4,46.9,29.61,SW,227,0.0,0.0,73,0.00,,,0.00,Wunderground v.1.15,2013-05-05 11:22:00,
2013-05-05 04:28:00,55.5,46.6,29.61,SW,227,0.0,0.0,72,0.00,,,0.00,Wunderground v.1.15,2013-05-05 11:28:00,
2013-05-05 04:34:00,55.5,46.6,29.61,SW,227,0.0,0.0,72,0.00,,,0.00,Wunderground v.1.15,2013-05-05 11:34:00,
2013-05-05 04:40:00,55.6,46.7,29.61,SW,227,0.0,0.0,72,0.00,,,0.00,Wunderground v.1.15,2013-05-05 11:40:00,
2013-05-05 04:46:00,55.7,46.8,29.61,SW,227,0.0,0.0,72,0.00,,,0.00,Wunderground v.1.15,2013-05-05 11:46:00,
2013-05-05 04:52:00,55.7,46.8,29.62,SW,227,0.0,0.0,72,0.00,,,0.00,Wunderground v.1.15,2013-05-05 11:52:00,
2013-05-05 04:58:00,55.7,46.8,29.62,SW,227,0.0,0.0,72,0.00,,,0.00,Wunderground v.1.15,2013-05-05 11:58:00,
2013-05-05 05:04:00,55.7,46.8,29.62,SW,227,0.0,0.0,72,0.00,,,0.00,Wunderground v.1.15,2013-05-05 12:04:00,
2013-05-05 05:10:00,55.7,46.4,29.62,SW,227,0.0,0.0,71,0.00,,,0.00,Wunderground v.1.15,2013-05-05 12:10:00,
2013-05-05 05:16:00,55.7,46.4,29.62,SW,232,0.0,0.0,71,0.00,,,0.00,Wunderground v.1.15,2013-05-05 12:16:00,
2013-05-05 05:22:00,55.7,46.4,29.62,SW,232,0.0,0.0,71,0.00,,,0.00,Wunderground v.1.15,2013-05-05 12:22:00,
2013-05-05 05:28:00,55.7,46.4,29.62,SW,232,0.0,0.0,71,0.00,,,0.00,Wunderground v.1.15,2013-05-05 12:28:00,
2013-05-05 05:34:00,55.8,46.5,29.62,SW,232,0.0,0.0,71,0.00,,,0.00,Wunderground v.1.15,2013-05-05 12:34:00,
2013-05-05 05:39:00,55.9,46.6,29.63,SW,232,0.0,0.0,71,0.00,,,0.00,Wunderground v.1.15,2013-05-05 12:39:00,
2013-05-05 05:46:00,55.8,46.5,29.63,SW,232,0.0,0.0,71,0.00,,,0.00,Wunderground v.1.15,2013-05-05 12:46:00,
2013-05-05 05:52:00,55.9,46.3,29.63,SW,232,0.0,0.0,70,0.00,,,0.00,Wunderground v.1.15,2013-05-05 12:52:00,
2013-05-05 05:57:00,55.9,46.6,29.62,SW,232,0.0,0.0,71,0.00,,,0.00,Wunderground v.1.15,2013-05-05 12:57:00,
2013-05-05 06:04:00,55.9,46.6,29.63,SW,232,0.0,0.0,71,0.00,,,0.00,Wunderground v.1.15,2013-05-05 13:04:00,
2013-05-05 06:10:00,55.9,46.6,29.63,SW,232,0.0,0.0,71,0.00,,,0.00,Wunderground v.1.15,2013-05-05 13:10:00,
2013-05-05 06:16:00,55.9,46.6,29.63,SW,236,0.0,0.0,71,0.00,,,0.00,Wunderground v.1.15,2013-05-05 13:16:00,
2013-05-05 06:22:00,55.9,46.6,29.63,SW,236,0.0,0.0,71,0.00,,,0.00,Wunderground v.1.15,2013-05-05 13:22:00,
2013-05-05 06:28:00,55.9,46.6,29.63,WSW,258,0.0,0.0,71,0.00,,,0.00,Wunderground v.1.15,2013-05-05 13:28:00,
2013-05-05 06:34:00,55.8,46.5,29.63,WSW,258,0.0,0.0,71,0.00,,,0.00,Wunderground v.1.15,2013-05-05 13:34:00,
2013-05-05 06:40:00,55.8,46.9,29.63,WSW,258,0.0,0.0,72,0.00,,,0.00,Wunderground v.1.15,2013-05-05 13:40:00,
2013-05-05 06:46:00,55.8,46.9,29.63,WSW,258,0.0,0.0,72,0.00,,,0.00,Wunderground v.1.15,2013-05-05 13:46:00,
2013-05-05 06:52:00,55.8,46.9,29.64,WSW,258,0.0,0.0,72,0.00,,,0.00,Wunderground v.1.15,2013-05-05 13:52:00,
2013-05-05 06:58:00,55.9,46.6,29.64,WSW,258,0.0,1.0,71,0.00,,,0.00,Wunderground v.1.15,2013-05-05 13:58:00,
2013-05-05 07:04:00,55.9,46.3,29.65,NW,305,0.0,2.0,70,0.00,,,0.00,Wunderground v.1.15,2013-05-05 14:04:00,
2013-05-05 07:10:00,56.0,46.4,29.65,NW,304,0.0,0.0,70,0.00,,,0.00,Wunderground v.1.15,2013-05-05 14:10:00,
2013-05-05 07:16:00,56.3,46.6,29.65,NW,304,0.0,0.0,70,0.00,,,0.00,Wunderground v.1.15,2013-05-05 14:16:00,
2013-05-05 07:22:00,56.6,46.9,29.65,NW,304,0.0,0.0,70,0.00,,,0.00,Wunderground v.1.15,2013-05-05 14:22:00,
2013-05-05 07:28:00,56.8,47.1,29.65,NW,304,0.0,0.0,70,0.00,,,0.00,Wunderground v.1.15,2013-05-05 14:28:00,
2013-05-05 07:34:00,57.0,47.3,29.66,NW,304,0.0,0.0,70,0.00,,,0.00,Wunderground v.1.15,2013-05-05 14:34:00,
2013-05-05 07:40:00,57.1,47.0,29.66,NW,304,0.0,0.0,69,0.00,,,0.00,Wunderground v.1.15,2013-05-05 14:40:00,
2013-05-05 07:46:00,57.3,46.8,29.66,West,279,0.0,0.0,68,0.00,,,0.00,Wunderground v.1.15,2013-05-05 14:46:00,
2013-05-05 07:51:00,57.5,46.2,29.66,West,280,0.0,0.0,66,0.00,,,0.00,Wunderground v.1.15,2013-05-05 14:51:00,
2013-05-05 07:58:00,57.8,46.9,29.66,West,281,0.0,2.0,67,0.00,,,0.00,Wunderground v.1.15,2013-05-05 14:58:00,
2013-05-05 08:04:00,58.0,46.7,29.66,West,281,0.0,0.0,66,0.00,,,0.00,Wunderground v.1.15,2013-05-05 15:04:00,
2013-05-05 08:10:00,58.2,46.9,29.66,NE,47,0.0,0.0,66,0.00,,,0.00,Wunderground v.1.15,2013-05-05 15:10:00,
2013-05-05 08:16:00,58.4,47.5,29.66,NE,47,0.0,1.0,67,0.00,,,0.00,Wunderground v.1.15,2013-05-05 15:16:00,
2013-05-05 08:22:00,58.7,47.0,29.66,NNE,17,0.0,1.0,65,0.00,,,0.00,Wunderground v.1.15,2013-05-05 15:22:00,
2013-05-05 08:28:00,59.0,46.4,29.66,NNE,17,0.0,1.0,63,0.00,,,0.00,Wunderground v.1.15,2013-05-05 15:28:00,
2013-05-05 08:34:00,59.5,48.1,29.66,NNE,17,0.0,0.0,66,0.00,,,0.00,Wunderground v.1.15,2013-05-05 15:34:00,
2013-05-05 08:40:00,59.5,46.5,29.67,NNW,346,1.0,2.0,62,0.00,,,0.00,Wunderground v.1.15,2013-05-05 15:40:00,
2013-05-05 08:46:00,59.4,47.2,29.67,NNW,337,1.0,2.0,64,0.00,,,0.00,Wunderground v.1.15,2013-05-05 15:46:00,
2013-05-05 08:52:00,59.5,47.3,29.67,NNW,336,0.0,0.0,64,0.00,,,0.00,Wunderground v.1.15,2013-05-05 15:52:00,
2013-05-05 08:58:00,59.5,46.9,29.67,SW,229,0.0,2.0,63,0.00,,,0.00,Wunderground v.1.15,2013-05-05 15:58:00,
2013-05-05 09:04:00,59.6,47.4,29.68,SW,229,0.0,0.0,64,0.00,,,0.00,Wunderground v.1.15,2013-05-05 16:04:00,
2013-05-05 09:09:00,59.5,46.9,29.68,NW,321,0.0,0.0,63,0.00,,,0.00,Wunderground v.1.15,2013-05-05 16:09:00,
2013-05-05 09:16:00,59.5,46.9,29.68,SSW,204,1.0,1.0,63,0.00,,,0.00,Wunderground v.1.15,2013-05-05 16:16:00,
2013-05-05 09:22:00,59.6,47.0,29.68,SSW,201,1.0,1.0,63,0.00,,,0.00,Wunderground v.1.15,2013-05-05 16:22:00,
2013-05-05 09:28:00,60.0,47.8,29.68,SSW,202,0.0,1.0,64,0.00,,,0.00,Wunderground v.1.15,2013-05-05 16:28:00,
2013-05-05 09:34:00,60.2,47.1,29.68,SSW,206,1.0,2.0,62,0.00,,,0.00,Wunderground v.1.15,2013-05-05 16:34:00,
2013-05-05 09:40:00,60.1,46.6,29.68,SSE,152,1.0,1.0,61,0.00,,,0.00,Wunderground v.1.15,2013-05-05 16:40:00,
2013-05-05 09:46:00,60.0,46.9,29.68,South,179,1.0,4.0,62,0.00,,,0.00,Wunderground v.1.15,2013-05-05 16:46:00,
2013-05-05 09:52:00,60.0,46.1,29.69,South,191,1.0,3.0,60,0.00,,,0.00,Wunderground v.1.15,2013-05-05 16:52:00,
2013-05-05 09:58:00,60.1,46.6,29.68,SW,220,2.0,3.0,61,0.00,,,0.00,Wunderground v.1.15,2013-05-05 16:58:00,
2013-05-05 10:04:00,60.3,46.8,29.69,West,262,2.0,2.0,61,0.00,,,0.00,Wunderground v.1.15,2013-05-05 17:04:00,
2013-05-05 10:10:00,60.4,46.4,29.69,South,187,2.0,2.0,60,0.00,,,0.00,Wunderground v.1.15,2013-05-05 17:10:00,
2013-05-05 10:16:00,60.7,47.2,29.69,SSW,213,1.0,2.0,61,0.00,,,0.00,Wunderground v.1.15,2013-05-05 17:16:00,
2013-05-05 10:22:00,61.3,47.3,29.69,South,180,1.0,1.0,60,0.00,,,0.00,Wunderground v.1.15,2013-05-05 17:22:00,
2013-05-05 10:28:00,61.3,46.4,29.69,SW,234,1.0,1.0,58,0.00,,,0.00,Wunderground v.1.15,2013-05-05 17:28:00,
2013-05-05 10:34:00,61.4,46.9,29.70,SSW,207,1.0,6.0,59,0.00,,,0.00,Wunderground v.1.15,2013-05-05 17:34:00,
2013-05-05 10:40:00,62.2,47.7,29.70,SW,217,1.0,1.0,59,0.00,,,0.00,Wunderground v.1.15,2013-05-05 17:40:00,
2013-05-05 10:46:00,62.8,47.3,29.70,SW,215,1.0,2.0,57,0.00,,,0.00,Wunderground v.1.15,2013-05-05 17:46:00,
2013-05-05 10:52:00,63.1,47.6,29.70,SSW,202,2.0,3.0,57,0.00,,,0.00,Wunderground v.1.15,2013-05-05 17:52:00,
2013-05-05 10:58:00,62.8,47.3,29.70,West,277,1.0,3.0,57,0.00,,,0.00,Wunderground v.1.15,2013-05-05 17:58:00,
2013-05-05 11:04:00,62.8,47.3,29.70,SSW,206,0.0,1.0,57,0.00,,,0.00,Wunderground v.1.15,2013-05-05 18:04:00,
2013-05-05 11:10:00,62.6,47.1,29.70,SW,225,1.0,1.0,57,0.00,,,0.00,Wunderground v.1.15,2013-05-05 18:10:00,
2013-05-05 11:16:00,62.6,47.1,29.70,SW,224,0.0,1.0,57,0.00,,,0.00,Wunderground v.1.15,2013-05-05 18:16:00,
2013-05-05 11:22:00,62.7,48.6,29.70,SW,226,0.0,0.0,60,0.00,,,0.00,Wunderground v.1.15,2013-05-05 18:22:00,
2013-05-05 11:28:00,62.7,48.2,29.71,South,187,0.0,0.0,59,0.00,,,0.00,Wunderground v.1.15,2013-05-05 18:28:00,
2013-05-05 11:33:00,62.7,47.7,29.70,SSW,193,0.0,1.0,58,0.00,,,0.00,Wunderground v.1.15,2013-05-05 18:33:00,
2013-05-05 11:40:00,62.7,47.7,29.71,SSW,212,0.0,5.0,58,0.00,,,0.00,Wunderground v.1.15,2013-05-05 18:40:00,
2013-05-05 11:46:00,62.2,47.7,29.71,South,190,1.0,5.0,59,0.00,,,0.00,Wunderground v.1.15,2013-05-05 18:46:00,
2013-05-05 11:52:00,62.0,48.0,29.71,SW,217,1.0,1.0,60,0.00,,,0.00,Wunderground v.1.15,2013-05-05 18:52:00,
2013-05-05 11:58:00,62.4,48.3,29.71,SW,217,0.0,1.0,60,0.00,,,0.00,Wunderground v.1.15,2013-05-05 18:58:00,
2013-05-05 12:08:00,62.5,48.4,29.71,SSW,205,0.0,1.0,60,0.00,,,0.00,Wunderground v.1.15,2013-05-05 19:08:00,
2013-05-05 12:14:00,61.9,48.3,29.71,SSW,205,0.0,0.0,61,0.00,,,0.00,Wunderground v.1.15,2013-05-05 19:14:00,
2013-05-05 12:20:00,61.7,48.5,29.71,SSW,205,0.0,0.0,62,0.00,,,0.00,Wunderground v.1.15,2013-05-05 19:20:00,
2013-05-05 12:26:00,61.4,48.3,29.71,SSW,205,0.0,0.0,62,0.00,,,0.00,Wunderground v.1.15,2013-05-05 19:26:00,
2013-05-05 12:31:00,61.1,48.4,29.71,SSW,208,0.0,0.0,63,0.00,,,0.00,Wunderground v.1.15,2013-05-05 19:31:00,
2013-05-05 12:38:00,61.4,49.1,29.70,SSW,209,0.0,0.0,64,0.00,,,0.00,Wunderground v.1.15,2013-05-05 19:38:00,
2013-05-05 12:44:00,62.1,49.8,29.70,SSW,209,0.0,0.0,64,0.00,,,0.00,Wunderground v.1.15,2013-05-05 19:44:00,
2013-05-05 12:50:00,62.6,49.0,29.70,SSW,209,0.0,0.0,61,0.00,,,0.00,Wunderground v.1.15,2013-05-05 19:50:00,
2013-05-05 12:56:00,62.8,49.6,29.69,SSW,205,0.0,0.0,62,0.00,,,0.00,Wunderground v.1.15,2013-05-05 19:56:00,
2013-05-05 13:02:00,62.6,48.1,29.69,NNW,327,0.0,1.0,59,0.00,,,0.00,Wunderground v.1.15,2013-05-05 20:02:00,
2013-05-05 13:08:00,62.2,48.6,29.69,NNW,327,1.0,1.0,61,0.00,,,0.00,Wunderground v.1.15,2013-05-05 20:08:00,
2013-05-05 13:14:00,62.7,49.5,29.69,NNW,327,1.0,1.0,62,0.00,,,0.00,Wunderground v.1.15,2013-05-05 20:14:00,
2013-05-05 13:20:00,62.9,48.8,29.69,NNW,327,1.0,1.0,60,0.00,,,0.00,Wunderground v.1.15,2013-05-05 20:20:00,
2013-05-05 13:26:00,63.0,48.4,29.69,NE,35,1.0,1.0,59,0.00,,,0.00,Wunderground v.1.15,2013-05-05 20:26:00,
2013-05-05 13:32:00,63.3,49.2,29.69,NNE,28,1.0,1.0,60,0.00,,,0.00,Wunderground v.1.15,2013-05-05 20:32:00,
2013-05-05 13:38:00,63.6,49.5,29.69,NNW,327,0.0,1.0,60,0.00,,,0.00,Wunderground v.1.15,2013-05-05 20:38:00,
2013-05-05 13:44:00,63.8,48.7,29.69,NNW,338,1.0,1.0,58,0.00,,,0.00,Wunderground v.1.15,2013-05-05 20:44:00,
2013-05-05 13:50:00,63.5,48.0,29.69,WNW,294,1.0,1.0,57,0.00,,,0.00,Wunderground v.1.15,2013-05-05 20:50:00,
2013-05-05 13:56:00,63.2,48.2,29.69,NNE,16,0.0,1.0,58,0.00,,,0.00,Wunderground v.1.15,2013-05-05 20:56:00,
2013-05-05 14:02:00,63.1,48.5,29.69,North,355,0.0,0.0,59,0.00,,,0.00,Wunderground v.1.15,2013-05-05 21:02:00,
2013-05-05 14:08:00,63.4,48.8,29.69,North,355,0.0,0.0,59,0.00,,,0.00,Wunderground v.1.15,2013-05-05 21:08:00,
2013-05-05 14:14:00,63.6,49.0,29.70,North,355,0.0,1.0,59,0.00,,,0.00,Wunderground v.1.15,2013-05-05 21:14:00,
2013-05-05 14:20:00,63.8,49.2,29.69,North,355,0.0,0.0,59,0.00,,,0.00,Wunderground v.1.15,2013-05-05 21:20:00,
2013-05-05 14:26:00,64.4,48.8,29.69,NNW,348,1.0,2.0,57,0.00,,,0.00,Wunderground v.1.15,2013-05-05 21:26:00,
2013-05-05 14:32:00,64.7,49.6,29.70,NNW,348,0.0,0.0,58,0.00,,,0.00,Wunderground v.1.15,2013-05-05 21:32:00,
2013-05-05 14:38:00,64.2,49.1,29.70,NNW,347,0.0,2.0,58,0.00,,,0.00,Wunderground v.1.15,2013-05-05 21:38:00,
2013-05-05 14:44:00,63.9,48.8,29.70,NNW,347,0.0,1.0,58,0.00,,,0.00,Wunderground v.1.15,2013-05-05 21:44:00,
2013-05-05 14:50:00,64.1,49.9,29.70,NNW,347,0.0,0.0,60,0.00,,,0.00,Wunderground v.1.15,2013-05-05 21:50:00,
2013-05-05 14:56:00,64.3,48.7,29.70,NNW,348,0.0,1.0,57,0.00,,,0.00,Wunderground v.1.15,2013-05-05 21:56:00,
2013-05-05 15:02:00,64.5,50.3,29.70,NNW,348,0.0,0.0,60,0.00,,,0.00,Wunderground v.1.15,2013-05-05 22:02:00,
2013-05-05 15:08:00,64.7,49.6,29.70,NNW,341,0.0,4.0,58,0.00,,,0.00,Wunderground v.1.15,2013-05-05 22:08:00,
2013-05-05 15:14:00,65.0,50.3,29.69,NNW,344,1.0,1.0,59,0.00,,,0.00,Wunderground v.1.15,2013-05-05 22:14:00,
2013-05-05 15:20:00,65.4,50.2,29.69,NNW,342,0.0,0.0,58,0.00,,,0.00,Wunderground v.1.15,2013-05-05 22:20:00,
2013-05-05 15:26:00,65.7,50.0,29.70,NNW,342,0.0,3.0,57,0.00,,,0.00,Wunderground v.1.15,2013-05-05 22:26:00,
2013-05-05 15:32:00,65.9,50.2,29.69,NNW,342,0.0,0.0,57,0.00,,,0.00,Wunderground v.1.15,2013-05-05 22:32:00,
2013-05-05 15:38:00,66.3,50.6,29.69,NNW,342,0.0,0.0,57,0.00,,,0.00,Wunderground v.1.15,2013-05-05 22:38:00,
2013-05-05 15:44:00,66.1,50.4,29.70,West,279,0.0,2.0,57,0.00,,,0.00,Wunderground v.1.15,2013-05-05 22:44:00,
2013-05-05 15:50:00,65.9,50.2,29.69,North,5,0.0,0.0,57,0.00,,,0.00,Wunderground v.1.15,2013-05-05 22:50:00,
2013-05-05 15:56:00,66.0,51.3,29.69,North,355,0.0,0.0,59,0.00,,,0.00,Wunderground v.1.15,2013-05-05 22:56:00,
2013-05-05 16:02:00,66.2,51.0,29.70,North,355,0.0,0.0,58,0.00,,,0.00,Wunderground v.1.15,2013-05-05 23:02:00,
2013-05-05 16:08:00,66.2,50.5,29.70,SW,228,0.0,1.0,57,0.00,,,0.00,Wunderground v.1.15,2013-05-05 23:08:00,
2013-05-05 16:14:00,66.0,50.3,29.69,SW,229,0.0,1.0,57,0.00,,,0.00,Wunderground v.1.15,2013-05-05 23:14:00,
2013-05-05 16:20:00,65.3,49.7,29.69,NNW,327,0.0,0.0,57,0.00,,,0.00,Wunderground v.1.15,2013-05-05 23:20:00,
2013-05-05 16:26:00,64.9,49.8,29.69,NW,317,1.0,2.0,58,0.00,,,0.00,Wunderground v.1.15,2013-05-05 23:26:00,
2013-05-05 16:32:00,64.7,50.0,29.69,NW,318,1.0,2.0,59,0.00,,,0.00,Wunderground v.1.15,2013-05-05 23:32:00,
2013-05-05 16:38:00,64.8,50.6,29.69,NW,320,1.0,3.0,60,0.00,,,0.00,Wunderground v.1.15,2013-05-05 23:38:00,
2013-05-05 16:44:00,65.0,50.3,29.69,NW,319,1.0,2.0,59,0.00,,,0.00,Wunderground v.1.15,2013-05-05 23:44:00,
2013-05-05 16:50:00,64.8,50.1,29.69,NW,319,2.0,2.0,59,0.00,,,0.00,Wunderground v.1.15,2013-05-05 23:50:00,
2013-05-05 16:56:00,64.1,49.9,29.70,NW,321,2.0,2.0,60,0.00,,,0.00,Wunderground v.1.15,2013-05-05 23:56:00,
2013-05-05 17:02:00,63.8,49.6,29.70,NW,320,1.0,2.0,60,0.00,,,0.00,Wunderground v.1.15,2013-05-06 00:02:00,
2013-05-05 17:08:00,63.7,50.0,29.70,NW,320,1.0,2.0,61,0.00,,,0.00,Wunderground v.1.15,2013-05-06 00:08:00,
2013-05-05 17:14:00,63.7,50.0,29.70,NW,320,1.0,2.0,61,0.00,,,0.00,Wunderground v.1.15,2013-05-06 00:14:00,
2013-05-05 17:20:00,63.7,50.4,29.70,NW,320,1.0,1.0,62,0.00,,,0.00,Wunderground v.1.15,2013-05-06 00:20:00,
2013-05-05 17:26:00,63.9,50.6,29.70,NNW,347,0.0,1.0,62,0.00,,,0.00,Wunderground v.1.15,2013-05-06 00:26:00,
2013-05-05 17:32:00,64.1,51.2,29.70,SSW,205,0.0,0.0,63,0.00,,,0.00,Wunderground v.1.15,2013-05-06 00:32:00,
2013-05-05 17:38:00,64.3,51.0,29.70,SSW,207,0.0,0.0,62,0.00,,,0.00,Wunderground v.1.15,2013-05-06 00:38:00,
2013-05-05 17:44:00,64.4,51.1,29.70,SSW,207,0.0,0.0,62,0.00,,,0.00,Wunderground v.1.15,2013-05-06 00:44:00,
2013-05-05 17:50:00,64.4,51.1,29.70,SSW,207,0.0,0.0,62,0.00,,,0.00,Wunderground v.1.15,2013-05-06 00:50:00,
2013-05-05 17:56:00,64.3,51.0,29.70,SSW,207,0.0,0.0,62,0.00,,,0.00,Wunderground v.1.15,2013-05-06 00:56:00,
2013-05-05 18:02:00,64.2,50.5,29.70,WSW,241,0.0,0.0,61,0.00,,,0.00,Wunderground v.1.15,2013-05-06 01:02:00,
2013-05-05 18:08:00,64.0,50.7,29.71,WSW,244,0.0,1.0,62,0.00,,,0.00,Wunderground v.1.15,2013-05-06 01:08:00,
2013-05-05 18:14:00,63.8,50.5,29.70,WSW,244,0.0,0.0,62,0.00,,,0.00,Wunderground v.1.15,2013-05-06 01:14:00,
2013-05-05 18:20:00,63.6,50.8,29.71,WSW,244,0.0,0.0,63,0.00,,,0.00,Wunderground v.1.15,2013-05-06 01:20:00,
2013-05-05 18:26:00,63.3,50.5,29.71,WSW,244,0.0,0.0,63,0.00,,,0.00,Wunderground v.1.15,2013-05-06 01:26:00,
2013-05-05 18:32:00,63.1,50.3,29.71,SW,233,0.0,0.0,63,0.00,,,0.00,Wunderground v.1.15,2013-05-06 01:32:00,
2013-05-05 18:38:00,62.8,50.0,29.71,SW,219,0.0,0.0,63,0.00,,,0.00,Wunderground v.1.15,2013-05-06 01:38:00,
2013-05-05 18:44:00,62.7,49.9,29.71,SW,219,0.0,0.0,63,0.00,,,0.00,Wunderground v.1.15,2013-05-06 01:44:00,
2013-05-05 18:50:00,62.4,50.1,29.71,SW,219,0.0,0.0,64,0.00,,,0.00,Wunderground v.1.15,2013-05-06 01:50:00,
2013-05-05 18:56:00,62.1,49.8,29.72,SW,219,0.0,0.0,64,0.00,,,0.00,Wunderground v.1.15,2013-05-06 01:56:00,
2013-05-05 19:02:00,61.9,49.6,29.72,SW,219,0.0,0.0,64,0.00,,,0.00,Wunderground v.1.15,2013-05-06 02:02:00,
2013-05-05 19:08:00,61.7,49.8,29.72,SW,219,0.0,0.0,65,0.00,,,0.00,Wunderground v.1.15,2013-05-06 02:08:00,
2013-05-05 19:14:00,61.5,49.6,29.72,SW,219,0.0,1.0,65,0.00,,,0.00,Wunderground v.1.15,2013-05-06 02:14:00,
2013-05-05 19:20:00,61.4,49.5,29.72,SW,219,0.0,0.0,65,0.00,,,0.00,Wunderground v.1.15,2013-05-06 02:20:00,
2013-05-05 19:26:00,61.3,49.4,29.72,SW,219,0.0,0.0,65,0.00,,,0.00,Wunderground v.1.15,2013-05-06 02:26:00,
2013-05-05 19:32:00,61.2,49.7,29.72,SW,219,0.0,0.0,66,0.00,,,0.00,Wunderground v.1.15,2013-05-06 02:32:00,
2013-05-05 19:38:00,61.0,49.6,29.72,SW,219,0.0,0.0,66,0.00,,,0.00,Wunderground v.1.15,2013-05-06 02:38:00,
2013-05-05 19:44:00,60.9,49.5,29.72,SW,219,0.0,0.0,66,0.00,,,0.00,Wunderground v.1.15,2013-05-06 02:44:00,
2013-05-05 19:50:00,60.8,49.4,29.73,SW,219,0.0,1.0,66,0.00,,,0.00,Wunderground v.1.15,2013-05-06 02:50:00,
2013-05-05 19:56:00,60.8,49.4,29.73,SW,219,0.0,1.0,66,0.00,,,0.00,Wunderground v.1.15,2013-05-06 02:56:00,
2013-05-05 20:02:00,60.7,49.3,29.73,SW,219,0.0,0.0,66,0.00,,,0.00,Wunderground v.1.15,2013-05-06 03:02:00,
2013-05-05 20:08:00,60.6,49.2,29.73,SW,219,0.0,0.0,66,0.00,,,0.00,Wunderground v.1.15,2013-05-06 03:08:00,
2013-05-05 20:14:00,60.4,49.0,29.73,SW,219,0.0,0.0,66,0.00,,,0.00,Wunderground v.1.15,2013-05-06 03:14:00,
2013-05-05 20:20:00,60.2,49.2,29.73,SW,219,0.0,0.0,67,0.00,,,0.00,Wunderground v.1.15,2013-05-06 03:20:00,
2013-05-05 20:26:00,60.0,49.0,29.74,SW,219,0.0,0.0,67,0.00,,,0.00,Wunderground v.1.15,2013-05-06 03:26:00,
2013-05-05 20:32:00,59.8,48.8,29.74,SW,219,0.0,1.0,67,0.00,,,0.00,Wunderground v.1.15,2013-05-06 03:32:00,
2013-05-05 20:38:00,59.7,48.7,29.74,SW,219,0.0,1.0,67,0.00,,,0.00,Wunderground v.1.15,2013-05-06 03:38:00,
2013-05-05 20:44:00,59.5,48.9,29.74,SW,219,0.0,0.0,68,0.00,,,0.00,Wunderground v.1.15,2013-05-06 03:44:00,
2013-05-05 20:50:00,59.4,48.8,29.74,SW,219,0.0,0.0,68,0.00,,,0.00,Wunderground v.1.15,2013-05-06 03:50:00,
2013-05-05 20:56:00,59.3,49.1,29.74,SW,219,0.0,0.0,69,0.00,,,0.00,Wunderground v.1.15,2013-05-06 03:56:00,
2013-05-05 21:02:00,59.1,48.9,29.74,SW,219,0.0,0.0,69,0.00,,,0.00,Wunderground v.1.15,2013-05-06 04:02:00,
2013-05-05 21:04:00,59.0,48.8,29.75,SW,219,0.0,0.0,69,0.00,,,0.00,Wunderground v.1.15,2013-05-06 04:04:00,
2013-05-05 21:06:00,59.0,48.8,29.75,SW,219,0.0,0.0,69,0.00,,,0.00,Wunderground v.1.15,2013-05-06 04:06:00,
2013-05-05 21:10:00,59.0,48.8,29.75,SW,219,0.0,0.0,69,0.00,,,0.00,Wunderground v.1.15,2013-05-06 04:10:00,
2013-05-05 21:14:00,59.0,48.8,29.75,SW,219,0.0,0.0,69,0.00,,,0.00,Wunderground v.1.15,2013-05-06 04:14:00,
2013-05-05 21:20:00,59.0,48.8,29.75,SW,219,0.0,0.0,69,0.00,,,0.00,Wunderground v.1.15,2013-05-06 04:20:00,
2013-05-05 21:26:00,59.0,48.8,29.76,SW,219,0.0,0.0,69,0.00,,,0.00,Wunderground v.1.15,2013-05-06 04:26:00,
2013-05-05 21:32:00,59.0,48.8,29.76,SW,219,0.0,0.0,69,0.00,,,0.00,Wunderground v.1.15,2013-05-06 04:32:00,
2013-05-05 21:38:00,58.9,49.1,29.76,SW,219,0.0,0.0,70,0.00,,,0.00,Wunderground v.1.15,2013-05-06 04:38:00,
2013-05-05 21:44:00,58.8,49.0,29.76,SW,219,0.0,0.0,70,0.00,,,0.00,Wunderground v.1.15,2013-05-06 04:44:00,
2013-05-05 21:50:00,58.7,48.9,29.76,SW,219,0.0,0.0,70,0.00,,,0.00,Wunderground v.1.15,2013-05-06 04:50:00,
2013-05-05 21:56:00,58.6,48.8,29.76,SW,219,0.0,0.0,70,0.00,,,0.00,Wunderground v.1.15,2013-05-06 04:56:00,
2013-05-05 22:02:00,58.6,48.5,29.76,SW,219,0.0,1.0,69,0.00,,,0.00,Wunderground v.1.15,2013-05-06 05:02:00,
2013-05-05 22:08:00,58.5,48.4,29.76,SW,219,0.0,1.0,69,0.00,,,0.00,Wunderground v.1.15,2013-05-06 05:08:00,
2013-05-05 22:14:00,58.5,48.4,29.77,SW,221,0.0,1.0,69,0.00,,,0.00,Wunderground v.1.15,2013-05-06 05:14:00,
2013-05-05 22:20:00,58.4,48.7,29.77,SW,223,0.0,0.0,70,0.00,,,0.00,Wunderground v.1.15,2013-05-06 05:20:00,
2013-05-05 22:26:00,58.3,48.6,29.77,SW,224,0.0,1.0,70,0.00,,,0.00,Wunderground v.1.15,2013-05-06 05:26:00,
2013-05-05 22:32:00,58.2,48.5,29.77,SW,224,0.0,0.0,70,0.00,,,0.00,Wunderground v.1.15,2013-05-06 05:32:00,
2013-05-05 22:38:00,58.2,48.5,29.77,SW,224,0.0,0.0,70,0.00,,,0.00,Wunderground v.1.15,2013-05-06 05:38:00,
2013-05-05 22:44:00,58.1,48.4,29.77,SW,224,0.0,1.0,70,0.00,,,0.00,Wunderground v.1.15,2013-05-06 05:44:00,
2013-05-05 22:50:00,58.1,48.4,29.78,SW,224,0.0,0.0,70,0.00,,,0.00,Wunderground v.1.15,2013-05-06 05:50:00,
2013-05-05 22:56:00,57.9,48.6,29.78,SW,224,0.0,0.0,71,0.00,,,0.00,Wunderground v.1.15,2013-05-06 05:56:00,
2013-05-05 23:02:00,57.8,48.5,29.78,SW,224,0.0,0.0,71,0.00,,,0.00,Wunderground v.1.15,2013-05-06 06:02:00,
2013-05-05 23:08:00,57.8,48.5,29.78,SW,224,0.0,0.0,71,0.00,,,0.00,Wunderground v.1.15,2013-05-06 06:08:00,
2013-05-05 23:14:00,58.0,48.6,29.78,SW,224,0.0,1.0,71,0.00,,,0.00,Wunderground v.1.15,2013-05-06 06:14:00,
2013-05-05 23:20:00,58.0,48.6,29.78,SW,224,0.0,0.0,71,0.00,,,0.00,Wunderground v.1.15,2013-05-06 06:20:00,
2013-05-05 23:26:00,58.0,48.6,29.78,SW,224,0.0,0.0,71,0.00,,,0.00,Wunderground v.1.15,2013-05-06 06:26:00,
2013-05-05 23:32:00,57.9,48.6,29.78,SW,224,0.0,0.0,71,0.00,,,0.00,Wunderground v.1.15,2013-05-06 06:32:00,
2013-05-05 23:38:00,57.8,48.5,29.79,SW,224,0.0,0.0,71,0.00,,,0.00,Wunderground v.1.15,2013-05-06 06:38:00,
2013-05-05 23:44:00,57.8,48.5,29.79,SW,224,0.0,1.0,71,0.00,,,0.00,Wunderground v.1.15,2013-05-06 06:44:00,
2013-05-05 23:50:00,57.7,48.4,29.79,SW,224,0.0,0.0,71,0.00,,,0.00,Wunderground v.1.15,2013-05-06 06:50:00,
2013-05-05 23:56:00,57.8,48.5,29.79,SW,224,0.0,0.0,71,0.00,,,0.00,Wunderground v.1.15,2013-05-06 06:56:00,